FDX1461 KMEM-KMIA

Flight info

Callsign FDX1461
Flight time 1h 44m
Altitude 33000
Route BBKNG7 KERMI MGMRY ACORI FROGZ5
Aircraft B77L/H-SDE1E2E3FGHIJ2J3J4J5M1RWXY/LB1D1

Departure

Time 2026-05-04 17:49
Airport Memphis International Airport (KMEM)

Arrival

Time 2026-05-04 19:33
Airport Miami International Airport (KMIA)
Time Latitude Longitude Altitude Speed Heading
2026-05-04 17:15 35.05099 -89.96855 335 ft 0 kts 347°
2026-05-04 17:36 35.05087 -89.96851 330 ft 4 kts 347°
2026-05-04 17:37 35.05061 -89.96844 333 ft 3 kts 347°
2026-05-04 17:37 35.05042 -89.96840 331 ft 0 kts 13°
2026-05-04 17:42 35.05052 -89.96843 331 ft 8 kts 343°
2026-05-04 17:42 35.05067 -89.96891 333 ft 4 kts 258°
2026-05-04 17:43 35.05054 -89.96923 332 ft 4 kts 234°
2026-05-04 17:43 35.05033 -89.96950 330 ft 4 kts 228°
2026-05-04 17:43 35.05009 -89.96988 335 ft 10 kts 234°
2026-05-04 17:43 35.04983 -89.97034 335 ft 0 kts 231°
2026-05-04 17:44 35.04947 -89.97055 332 ft 17 kts 201°
2026-05-04 17:44 35.04893 -89.97101 335 ft 3 kts 237°
2026-05-04 17:44 35.04866 -89.97219 335 ft 22 kts 262°
2026-05-04 17:44 35.04868 -89.97402 332 ft 22 kts 286°
2026-05-04 17:45 35.04995 -89.97476 328 ft 22 kts 357°
2026-05-04 17:45 35.05146 -89.97484 328 ft 22 kts
2026-05-04 17:45 35.05297 -89.97485 329 ft 22 kts 359°
2026-05-04 17:45 35.05378 -89.97488 329 ft 7 kts 355°
2026-05-04 17:46 35.05405 -89.97499 327 ft 0 kts 330°
2026-05-04 17:47 35.05434 -89.97539 326 ft 14 kts 291°
2026-05-04 17:47 35.05400 -89.97601 326 ft 10 kts 202°
2026-05-04 17:48 35.05148 -89.97617 324 ft 74 kts 178°
2026-05-04 17:48 35.04391 -89.97607 327 ft 142 kts 180°
2026-05-04 17:48 35.03242 -89.97567 447 ft 181 kts 181°
2026-05-04 17:48 35.01916 -89.97602 869 ft 201 kts 181°
2026-05-04 17:49 35.00496 -89.97543 1546 ft 205 kts 179°
2026-05-04 17:49 34.99068 -89.97276 2200 ft 215 kts 166°
2026-05-04 17:49 34.97561 -89.96643 2429 ft 243 kts 163°
2026-05-04 17:49 34.95923 -89.95947 3122 ft 252 kts 164°
2026-05-04 17:50 34.94314 -89.95046 3771 ft 263 kts 145°
2026-05-04 17:50 34.93182 -89.93242 4514 ft 276 kts 113°
2026-05-04 17:50 34.92827 -89.90926 5252 ft 284 kts 95°
2026-05-04 17:50 34.92725 -89.88519 6042 ft 286 kts 95°
2026-05-04 17:51 34.92626 -89.86070 6767 ft 291 kts 95°
2026-05-04 17:51 34.92520 -89.83598 7543 ft 293 kts 95°
2026-05-04 17:51 34.92415 -89.81109 8277 ft 295 kts 96°
2026-05-04 17:51 34.92302 -89.78627 9055 ft 298 kts 96°
2026-05-04 17:52 34.92184 -89.76106 9821 ft 300 kts 96°
2026-05-04 17:52 34.92062 -89.73543 10469 ft 308 kts 96°
2026-05-04 17:52 34.91929 -89.70838 10656 ft 332 kts 95°
2026-05-04 17:52 34.91785 -89.67938 10867 ft 355 kts 95°
2026-05-04 17:53 34.91633 -89.64832 11087 ft 378 kts 95°
2026-05-04 17:53 34.91575 -89.61573 11647 ft 390 kts 92°
2026-05-04 17:53 34.91573 -89.58228 12380 ft 398 kts 91°
2026-05-04 17:53 34.91582 -89.54837 13239 ft 402 kts 91°
2026-05-04 17:54 34.91590 -89.51413 14050 ft 407 kts 91°
2026-05-04 17:54 34.91592 -89.47937 14828 ft 413 kts 91°
2026-05-04 17:54 34.91588 -89.44409 15534 ft 419 kts 91°
2026-05-04 17:54 34.91582 -89.40833 16249 ft 425 kts 90°
2026-05-04 17:55 34.91575 -89.37210 16981 ft 430 kts 90°
2026-05-04 17:55 34.91565 -89.33537 17687 ft 435 kts 90°
2026-05-04 17:55 34.91554 -89.29818 18270 ft 442 kts 90°
2026-05-04 17:55 34.91542 -89.26043 18913 ft 448 kts 90°
2026-05-04 17:56 34.91463 -89.22218 19553 ft 453 kts 94°
2026-05-04 17:56 34.91081 -89.18433 20136 ft 458 kts 101°
2026-05-04 17:56 34.90384 -89.14632 20712 ft 463 kts 104°
2026-05-04 17:56 34.89656 -89.10792 21263 ft 468 kts 103°
2026-05-04 17:57 34.88968 -89.06884 21824 ft 473 kts 102°
2026-05-04 17:57 34.88300 -89.02943 22416 ft 477 kts 102°
2026-05-04 17:57 34.87633 -88.98954 22945 ft 482 kts 102°
2026-05-04 17:57 34.86957 -88.94927 23433 ft 488 kts 102°
2026-05-04 17:58 34.86271 -88.90859 23943 ft 492 kts 102°
2026-05-04 17:58 34.85576 -88.86762 24472 ft 497 kts 102°
2026-05-04 17:58 34.84870 -88.82624 24970 ft 501 kts 102°
2026-05-04 17:58 34.84164 -88.78511 25472 ft 505 kts 102°
2026-05-04 17:59 34.83440 -88.74305 25968 ft 509 kts 102°
2026-05-04 17:59 34.82707 -88.70070 26411 ft 513 kts 102°
2026-05-04 17:59 34.81224 -88.61499 27296 ft 522 kts 102°
2026-05-04 18:00 34.80471 -88.57164 27718 ft 525 kts 102°
2026-05-04 18:00 34.79712 -88.52804 28151 ft 529 kts 102°
2026-05-04 18:00 34.78948 -88.48417 28544 ft 532 kts 102°
2026-05-04 18:00 34.78177 -88.43999 28912 ft 536 kts 102°
2026-05-04 18:01 34.77398 -88.39551 29307 ft 538 kts 102°
2026-05-04 18:01 34.76615 -88.35093 29816 ft 537 kts 102°
2026-05-04 18:01 34.75834 -88.30651 30343 ft 536 kts 102°
2026-05-04 18:02 34.74250 -88.21888 31360 ft 531 kts 107°
2026-05-04 18:02 34.72849 -88.17750 31655 ft 530 kts 123°
2026-05-04 18:02 34.70669 -88.14174 32037 ft 525 kts 137°
2026-05-04 18:02 34.67963 -88.11282 32567 ft 513 kts 150°
2026-05-04 18:03 34.64939 -88.09055 32923 ft 508 kts 154°
2026-05-04 18:03 34.61871 -88.06854 32981 ft 515 kts 154°
2026-05-04 18:03 34.58790 -88.04606 33084 ft 518 kts 153°
2026-05-04 18:03 34.55715 -88.02328 33449 ft 517 kts 153°
2026-05-04 18:04 34.52661 -88.00043 33957 ft 514 kts 153°
2026-05-04 18:04 34.49627 -87.97762 34442 ft 510 kts 152°
2026-05-04 18:04 34.43606 -87.93228 34969 ft 512 kts 153°
2026-05-04 18:05 34.40567 -87.90945 35021 ft 514 kts 153°
2026-05-04 18:05 34.34495 -87.86389 35045 ft 511 kts 153°
2026-05-04 18:06 34.25482 -87.79644 35056 ft 508 kts 153°
2026-05-04 18:06 34.19477 -87.75166 35067 ft 507 kts 153°
2026-05-04 18:07 34.13470 -87.70695 35081 ft 507 kts 153°
2026-05-04 18:07 34.07454 -87.66221 35074 ft 508 kts 153°
2026-05-04 18:08 34.01418 -87.61740 35074 ft 510 kts 153°
2026-05-04 18:08 33.95361 -87.57254 35078 ft 512 kts 153°
2026-05-04 18:09 33.83187 -87.48254 35084 ft 514 kts 153°
2026-05-04 18:10 33.77085 -87.43752 35083 ft 514 kts 153°
2026-05-04 18:10 33.70985 -87.39264 35084 ft 514 kts 153°
2026-05-04 18:11 33.64889 -87.34784 35083 ft 514 kts 153°
2026-05-04 18:11 33.58823 -87.30331 35087 ft 514 kts 153°
2026-05-04 18:12 33.52720 -87.25861 35096 ft 513 kts 153°
2026-05-04 18:12 33.46621 -87.21402 35096 ft 513 kts 154°
2026-05-04 18:13 33.40522 -87.16952 35095 ft 513 kts 154°
2026-05-04 18:14 33.31360 -87.10277 35088 ft 514 kts 154°
2026-05-04 18:14 33.25237 -87.05826 35101 ft 515 kts 154°
2026-05-04 18:15 33.13013 -86.96962 35097 ft 517 kts 154°
2026-05-04 18:16 33.06860 -86.92514 35098 ft 517 kts 154°
2026-05-04 18:16 33.00702 -86.88064 35095 ft 518 kts 154°
2026-05-04 18:17 32.91458 -86.81401 35098 ft 519 kts 155°
2026-05-04 18:18 32.82190 -86.74739 35094 ft 519 kts 155°
2026-05-04 18:18 32.75994 -86.70295 35080 ft 520 kts 155°
2026-05-04 18:19 32.66700 -86.63642 35085 ft 520 kts 155°
2026-05-04 18:19 32.60497 -86.59208 35097 ft 521 kts 155°
2026-05-04 18:20 32.54279 -86.54772 35102 ft 521 kts 155°
2026-05-04 18:20 32.48102 -86.50375 35096 ft 522 kts 155°
2026-05-04 18:21 32.41864 -86.45938 35096 ft 522 kts 156°
2026-05-04 18:21 32.35643 -86.41520 35075 ft 522 kts 156°
2026-05-04 18:22 32.29416 -86.37107 35069 ft 522 kts 156°
2026-05-04 18:22 32.23197 -86.32646 35097 ft 524 kts 153°
2026-05-04 18:23 32.17426 -86.27252 35104 ft 533 kts 144°
2026-05-04 18:23 32.11895 -86.21414 35098 ft 533 kts 144°
2026-05-04 18:24 32.06344 -86.15617 35101 ft 533 kts 144°
2026-05-04 18:24 32.00755 -86.09855 35099 ft 533 kts 145°
2026-05-04 18:25 31.95165 -86.04112 35111 ft 533 kts 145°
2026-05-04 18:25 31.89562 -85.98363 35115 ft 534 kts 145°
2026-05-04 18:26 31.83958 -85.92616 35113 ft 534 kts 145°
2026-05-04 18:26 31.78350 -85.86875 35107 ft 534 kts 145°
2026-05-04 18:27 31.73038 -85.80789 35115 ft 540 kts 137°
2026-05-04 18:27 31.68086 -85.74137 35110 ft 541 kts 135°
2026-05-04 18:28 31.63155 -85.67458 35106 ft 541 kts 136°
2026-05-04 18:28 31.58144 -85.60878 35100 ft 539 kts 137°
2026-05-04 18:29 31.53105 -85.54372 35106 ft 538 kts 137°
2026-05-04 18:29 31.49616 -85.49881 35105 ft 538 kts 137°
2026-05-04 18:30 31.42099 -85.40200 35120 ft 537 kts 137°
2026-05-04 18:31 31.37075 -85.33733 35127 ft 536 kts 137°
2026-05-04 18:31 31.32053 -85.27281 35124 ft 536 kts 137°
2026-05-04 18:32 31.27032 -85.20838 35117 ft 535 kts 137°
2026-05-04 18:32 31.22013 -85.14411 35122 ft 535 kts 137°
2026-05-04 18:33 31.16993 -85.07996 35117 ft 535 kts 137°
2026-05-04 18:33 31.11970 -85.01588 35110 ft 534 kts 137°
2026-05-04 18:34 31.07798 -84.96272 35112 ft 534 kts 137°
2026-05-04 18:34 31.02776 -84.89887 35110 ft 534 kts 137°
2026-05-04 18:35 30.97757 -84.83508 35114 ft 534 kts 137°
2026-05-04 18:35 30.92733 -84.77137 35112 ft 534 kts 137°
2026-05-04 18:36 30.87698 -84.70770 35111 ft 534 kts 137°
2026-05-04 18:36 30.82658 -84.64403 35113 ft 535 kts 137°
2026-05-04 18:37 30.79724 -84.60698 35117 ft 534 kts 137°
2026-05-04 18:37 30.77361 -84.57717 35111 ft 534 kts 137°
2026-05-04 18:38 30.72320 -84.51369 35110 ft 534 kts 137°
2026-05-04 18:38 30.67312 -84.45073 35116 ft 533 kts 137°
2026-05-04 18:39 30.62279 -84.38757 35117 ft 532 kts 137°
2026-05-04 18:39 30.57249 -84.32457 35115 ft 532 kts 138°
2026-05-04 18:40 30.52218 -84.26160 35110 ft 532 kts 138°
2026-05-04 18:40 30.47180 -84.19866 35112 ft 532 kts 138°
2026-05-04 18:41 30.42135 -84.13572 35108 ft 533 kts 138°
2026-05-04 18:41 30.37026 -84.07377 35100 ft 528 kts 145°
2026-05-04 18:41 30.34065 -84.04984 35119 ft 514 kts 157°
2026-05-04 18:42 30.30947 -84.02983 35076 ft 513 kts 159°
2026-05-04 18:42 30.24655 -83.99088 35098 ft 513 kts 158°
2026-05-04 18:43 30.18406 -83.95073 35103 ft 515 kts 157°
2026-05-04 18:43 30.12186 -83.90957 35102 ft 515 kts 157°
2026-05-04 18:44 30.05961 -83.86823 35103 ft 515 kts 157°
2026-05-04 18:44 29.99738 -83.82711 35102 ft 516 kts 157°
2026-05-04 18:45 29.93504 -83.78602 35103 ft 516 kts 157°
2026-05-04 18:45 29.87270 -83.74501 35100 ft 516 kts 157°
2026-05-04 18:46 29.81077 -83.70431 35101 ft 516 kts 157°
2026-05-04 18:46 29.74849 -83.66348 35101 ft 515 kts 157°
2026-05-04 18:47 29.68621 -83.62270 35102 ft 514 kts 157°
2026-05-04 18:47 29.62407 -83.58207 35100 ft 514 kts 157°
2026-05-04 18:48 29.56908 -83.54615 35099 ft 513 kts 157°
2026-05-04 18:48 29.50704 -83.50566 35096 ft 513 kts 157°
2026-05-04 18:49 29.44502 -83.46526 35088 ft 512 kts 157°
2026-05-04 18:49 29.38302 -83.42491 35080 ft 512 kts 157°
2026-05-04 18:50 29.32106 -83.38465 35081 ft 512 kts 157°
2026-05-04 18:50 29.25900 -83.34439 35082 ft 512 kts 158°
2026-05-04 18:51 29.19608 -83.30898 35082 ft 505 kts 164°
2026-05-04 18:51 29.13152 -83.27774 35082 ft 503 kts 165°
2026-05-04 18:52 29.06700 -83.24634 35081 ft 504 kts 164°
2026-05-04 18:52 29.00268 -83.21413 35085 ft 505 kts 163°
2026-05-04 18:53 28.93849 -83.18162 35089 ft 505 kts 163°
2026-05-04 18:53 28.87431 -83.14914 35078 ft 504 kts 163°
2026-05-04 18:54 28.81014 -83.11676 35097 ft 504 kts 163°
2026-05-04 18:54 28.74604 -83.08450 35096 ft 504 kts 163°
2026-05-04 18:55 28.68187 -83.05226 35096 ft 504 kts 164°
2026-05-04 18:55 28.58610 -83.00419 35091 ft 503 kts 164°
2026-05-04 18:56 28.52203 -82.97209 35079 ft 503 kts 164°
2026-05-04 18:56 28.45786 -82.94002 35082 ft 503 kts 164°
2026-05-04 18:57 28.39384 -82.90800 35078 ft 503 kts 164°
2026-05-04 18:57 28.32972 -82.87600 35085 ft 503 kts 164°
2026-05-04 18:58 28.26559 -82.84405 35097 ft 503 kts 164°
2026-05-04 18:58 28.20148 -82.81213 35074 ft 504 kts 164°
2026-05-04 18:59 28.13728 -82.78021 35074 ft 504 kts 164°
2026-05-04 18:59 28.07301 -82.74831 35065 ft 504 kts 164°
2026-05-04 19:00 28.00865 -82.71686 35054 ft 500 kts 168°
2026-05-04 19:00 27.97559 -82.70680 35061 ft 487 kts 178°
2026-05-04 19:00 27.94230 -82.70058 35057 ft 484 kts 180°
2026-05-04 19:01 27.87578 -82.68977 35055 ft 484 kts 180°
2026-05-04 19:01 27.80916 -82.67771 35056 ft 486 kts 178°
2026-05-04 19:02 27.74298 -82.66469 35040 ft 486 kts 178°
2026-05-04 19:02 27.67635 -82.65146 35034 ft 486 kts 178°
2026-05-04 19:03 27.60967 -82.63834 35041 ft 486 kts 178°
2026-05-04 19:03 27.54297 -82.62525 35041 ft 486 kts 178°
2026-05-04 19:04 27.47653 -82.60879 35041 ft 491 kts 173°
2026-05-04 19:04 27.41158 -82.58862 34895 ft 475 kts 173°
2026-05-04 19:05 27.38004 -82.57879 34757 ft 467 kts 173°
2026-05-04 19:05 27.34880 -82.56929 34624 ft 461 kts 174°
2026-05-04 19:05 27.28654 -82.55097 34649 ft 465 kts 174°
2026-05-04 19:06 27.22339 -82.53263 34665 ft 471 kts 174°
2026-05-04 19:06 27.15980 -82.51403 34656 ft 473 kts 173°
2026-05-04 19:07 27.09608 -82.49537 34655 ft 472 kts 173°
2026-05-04 19:07 27.03251 -82.47680 34653 ft 471 kts 173°
2026-05-04 19:08 26.96964 -82.45846 34651 ft 469 kts 173°
2026-05-04 19:08 26.90755 -82.43592 34644 ft 481 kts 156°
2026-05-04 19:09 26.88018 -82.41294 34441 ft 488 kts 145°
2026-05-04 19:09 26.85517 -82.38804 33988 ft 487 kts 144°
2026-05-04 19:09 26.83007 -82.36267 33448 ft 485 kts 144°
2026-05-04 19:09 26.80494 -82.33755 32897 ft 484 kts 144°
2026-05-04 19:10 26.77969 -82.31275 32388 ft 481 kts 145°
2026-05-04 19:10 26.75449 -82.28836 31928 ft 478 kts 145°
2026-05-04 19:10 26.72934 -82.26423 31496 ft 474 kts 145°
2026-05-04 19:10 26.70438 -82.24040 31084 ft 470 kts 145°
2026-05-04 19:11 26.67955 -82.21671 30603 ft 467 kts 145°
2026-05-04 19:11 26.65490 -82.19321 30131 ft 466 kts 145°
2026-05-04 19:11 26.63025 -82.16969 29654 ft 464 kts 145°
2026-05-04 19:11 26.60578 -82.14634 29221 ft 461 kts 145°
2026-05-04 19:12 26.58157 -82.12323 28831 ft 456 kts 145°
2026-05-04 19:12 26.53372 -82.07758 28027 ft 448 kts 145°
2026-05-04 19:12 26.51024 -82.05477 27594 ft 446 kts 143°
2026-05-04 19:13 26.48724 -82.03166 27189 ft 443 kts 143°
2026-05-04 19:13 26.46456 -82.00859 26796 ft 440 kts 143°
2026-05-04 19:13 26.44233 -81.98597 26386 ft 437 kts 143°
2026-05-04 19:13 26.41995 -81.96328 26001 ft 433 kts 143°
2026-05-04 19:14 26.39767 -81.94078 25599 ft 430 kts 143°
2026-05-04 19:14 26.37555 -81.91851 25210 ft 426 kts 143°
2026-05-04 19:14 26.35362 -81.89647 24815 ft 423 kts 143°
2026-05-04 19:14 26.33179 -81.87456 24405 ft 420 kts 143°
2026-05-04 19:15 26.31013 -81.85283 24016 ft 417 kts 143°
2026-05-04 19:15 26.28861 -81.83125 23635 ft 414 kts 143°
2026-05-04 19:15 26.26727 -81.80984 23241 ft 411 kts 143°
2026-05-04 19:15 26.24613 -81.78852 22859 ft 407 kts 141°
2026-05-04 19:16 26.22833 -81.76377 22351 ft 414 kts 121°
2026-05-04 19:16 26.21595 -81.73479 21908 ft 413 kts 117°
2026-05-04 19:16 26.20434 -81.70607 21923 ft 401 kts 116°
2026-05-04 19:16 26.19704 -81.67595 21924 ft 413 kts 95°
2026-05-04 19:17 26.19608 -81.64369 21910 ft 421 kts 97°
2026-05-04 19:17 26.18988 -81.61185 21923 ft 420 kts 112°
2026-05-04 19:17 26.17899 -81.58188 21743 ft 415 kts 117°
2026-05-04 19:17 26.16660 -81.55342 21372 ft 411 kts 122°
2026-05-04 19:18 26.15175 -81.52652 21028 ft 404 kts 128°
2026-05-04 19:18 26.13583 -81.50107 20697 ft 398 kts 129°
2026-05-04 19:18 26.11984 -81.47604 20309 ft 395 kts 129°
2026-05-04 19:18 26.10406 -81.45107 19898 ft 394 kts 129°
2026-05-04 19:19 26.08849 -81.42611 19518 ft 391 kts 129°
2026-05-04 19:19 26.07311 -81.40130 19126 ft 388 kts 128°
2026-05-04 19:19 26.05922 -81.37561 18736 ft 388 kts 121°
2026-05-04 19:19 26.04742 -81.34866 18322 ft 387 kts 118°
2026-05-04 19:20 26.03629 -81.32153 17953 ft 384 kts 118°
2026-05-04 19:20 26.02522 -81.29465 17583 ft 380 kts 118°
2026-05-04 19:20 26.01782 -81.27703 17305 ft 379 kts 118°
2026-05-04 19:20 26.00653 -81.25058 16915 ft 377 kts 119°
2026-05-04 19:21 25.99523 -81.22448 16545 ft 374 kts 119°
2026-05-04 19:21 25.98393 -81.19858 16153 ft 371 kts 119°
2026-05-04 19:21 25.97268 -81.17285 15749 ft 369 kts 119°
2026-05-04 19:21 25.96151 -81.14733 15370 ft 366 kts 119°
2026-05-04 19:22 25.95044 -81.12201 15007 ft 362 kts 119°
2026-05-04 19:22 25.93948 -81.09699 14639 ft 359 kts 119°
2026-05-04 19:22 25.92858 -81.07209 14218 ft 357 kts 119°
2026-05-04 19:22 25.91780 -81.04750 14013 ft 349 kts 119°
2026-05-04 19:23 25.90758 -81.02361 13910 ft 337 kts 117°
2026-05-04 19:23 25.89853 -80.99997 13756 ft 328 kts 116°
2026-05-04 19:23 25.88992 -80.97689 13526 ft 321 kts 116°
2026-05-04 19:23 25.88137 -80.95419 13221 ft 316 kts 116°
2026-05-04 19:24 25.87280 -80.93173 12816 ft 315 kts 116°
2026-05-04 19:24 25.86432 -80.90975 12434 ft 312 kts 117°
2026-05-04 19:24 25.85573 -80.88764 12046 ft 311 kts 116°
2026-05-04 19:24 25.84746 -80.86572 11639 ft 308 kts 116°
2026-05-04 19:25 25.83908 -80.84380 11231 ft 307 kts 116°
2026-05-04 19:25 25.83073 -80.82216 10925 ft 303 kts 116°
2026-05-04 19:25 25.82291 -80.80066 10536 ft 299 kts 107°
2026-05-04 19:25 25.81923 -80.77773 10082 ft 302 kts 97°
2026-05-04 19:26 25.81752 -80.75458 9756 ft 299 kts 95°
2026-05-04 19:26 25.81606 -80.73185 9476 ft 293 kts 95°
2026-05-04 19:26 25.81444 -80.70928 9077 ft 293 kts 96°
2026-05-04 19:26 25.81259 -80.68692 8756 ft 289 kts 96°
2026-05-04 19:27 25.81066 -80.66485 8408 ft 286 kts 96°
2026-05-04 19:27 25.80872 -80.64316 7971 ft 278 kts 96°
2026-05-04 19:27 25.80678 -80.62192 7221 ft 276 kts 96°
2026-05-04 19:27 25.80482 -80.60090 6511 ft 272 kts 96°
2026-05-04 19:28 25.80287 -80.58019 5836 ft 267 kts 96°
2026-05-04 19:28 25.80094 -80.55994 5190 ft 261 kts 95°
2026-05-04 19:28 25.79903 -80.53992 4404 ft 261 kts 95°
2026-05-04 19:28 25.79711 -80.51999 3729 ft 256 kts 94°
2026-05-04 19:29 25.79527 -80.50095 3377 ft 238 kts 94°
2026-05-04 19:29 25.79455 -80.48345 3094 ft 222 kts 86°
2026-05-04 19:29 25.79544 -80.46665 2855 ft 212 kts 84°
2026-05-04 19:29 25.79633 -80.45077 2627 ft 203 kts 85°
2026-05-04 19:30 25.79711 -80.43525 2320 ft 198 kts 85°
2026-05-04 19:30 25.79777 -80.42078 2046 ft 182 kts 85°
2026-05-04 19:30 25.79835 -80.40767 1871 ft 155 kts 85°
2026-05-04 19:30 25.79890 -80.39537 1847 ft 167 kts 85°
2026-05-04 19:31 25.79950 -80.38194 1533 ft 174 kts 85°
2026-05-04 19:31 25.80008 -80.36881 992 ft 170 kts 85°
2026-05-04 19:31 25.80060 -80.35666 920 ft 159 kts 86°
2026-05-04 19:31 25.80105 -80.34400 1009 ft 166 kts 84°
2026-05-04 19:32 25.80206 -80.33066 735 ft 174 kts 83°
2026-05-04 19:32 25.80262 -80.31796 418 ft 157 kts 87°
2026-05-04 19:32 25.80268 -80.30643 143 ft 140 kts 88°
2026-05-04 19:32 25.80295 -80.29616 26 ft 126 kts 86°
2026-05-04 19:33 25.80346 -80.28792 20 ft 61 kts 89°
2026-05-04 19:33 25.80355 -80.28490 20 ft 25 kts 86°
2026-05-04 19:33 25.80387 -80.28327 20 ft 8 kts 65°
2026-05-04 19:33 25.80438 -80.28278 21 ft 11 kts 349°
2026-05-04 19:34 25.80472 -80.28411 20 ft 21 kts 268°
2026-05-04 19:34 25.80467 -80.28576 21 ft 21 kts 268°
2026-05-04 19:34 25.80462 -80.28741 20 ft 21 kts 267°
2026-05-04 19:34 25.80454 -80.28906 19 ft 21 kts 267°
2026-05-04 19:35 25.80447 -80.29031 19 ft 9 kts 266°
2026-05-04 19:35 25.80443 -80.29104 19 ft 9 kts 266°
2026-05-04 19:35 25.80439 -80.29176 22 ft 9 kts 267°
2026-05-04 19:35 25.80438 -80.29244 20 ft 0 kts 271°
2026-05-04 19:36 25.80445 -80.29280 21 ft 11 kts 296°
2026-05-04 19:36 25.80500 -80.29309 19 ft 8 kts 355°
2026-05-04 19:36 25.80508 -80.29310 19 ft 3 kts 354°
2026-05-04 19:36 25.80515 -80.29311 19 ft 0 kts 355°